User: anonymous
Location: Stigler
(35.2540°N, 95.1230°W)
Time: 06:40:06
(UTC-05:00)
Language:

Cosmos 1805 - Orbit

View from above orbital plane
View from above orbital plane
View from above satellite
View from above satellite

Ground track
Ground track

The orbit data is extracted from the following two-line orbital elements,

1 17191U 86097A   14244.02732895  .00001712  00000-0  11035-3 0  9736
2 17191 082.5013 311.6023 0007251 307.6814 052.3756 15.07705223509655
Epoch (UTC): 01 September 2014 00:39:21
Eccentricity: 0.0007251
inclination: 82.5013°
perigee height: 538 km
apogee height: 548 km
right ascension of ascending node: 311.6023°
argument of perigee: 307.6814°
revolutions per day: 15.07705223
mean anomaly at epoch: 52.3756°
orbit number at epoch: 50965

The dashed part of the orbit path shows where the satellite is in the earth's shadow,  

DLR